Rechercher aéroport 
image banner adimage banner adimage banner ad
image banner ad

KBWC - Brawley Muni

Situé à Brawley, United States

ICAO - BWC, IATA - BWC

Données fournies par Airmate  

Information générale

Coordonnées: N32°59'35" W115°31'2"
Élévation : -128 feet MSL.
Variation magnétique : 13° East
Voir autres Aéroports à California

Données opérationnelles

Special qualification required
Heure actuelle UTC:
Heure actuelle locale:
Météo à : KIPL - Imperial County ( 19 km )
METAR: KIPL 210053Z AUTO 30003KT 10SM CLR 37/08 A2980 RMK AO2 SLP091 T03670083
TAF: KIPL 202320Z 2100/2124 VRB05KT P6SM SKC
Voir NOTAMs / SUP AIP / TFR affectant cet aéroport [VIEW]
Fréquences de communication: [VIEW]

Pistes:

Identifiant RWYQFULongueur (ft)Largeur (ft)SurfaceLDA (ft)
0890°416660ASPH
26270°416660ASPH

Coordonnées de l'aéroport

Adresse: Brawley United States

Vue satellite de KBWC